CST,Max TemperatureF,Mean TemperatureF,Min TemperatureF,Max Dew PointF,MeanDew PointF,Min DewpointF,Max Humidity, Mean Humidity, Min Humidity, Max Sea Level PressureIn, Mean Sea Level PressureIn, Min Sea Level PressureIn, Max VisibilityMiles, Mean VisibilityMiles, Min VisibilityMiles, Max Wind SpeedMPH, Mean Wind SpeedMPH, Max Gust SpeedMPH,PrecipitationIn, CloudCover, Events, WindDirDegrees
2012-12-1,71,58,46,61,55,46,100,94,69,30.27,30.23,30.20,10,4,0,12,2,,0.01,6,Fog,114
2012-12-2,72,62,53,61,56,53,100,92,66,30.29,30.23,30.21,10,5,0,13,1,,0.00,3,Fog,135
2012-12-3,73,62,51,65,58,52,100,94,76,30.25,30.21,30.16,10,5,0,16,2,21,0.01,2,Fog,130
2012-12-4,72,68,64,66,65,62,100,88,81,30.25,30.18,30.14,10,10,10,13,9,,0.01,3,Rain,144
2012-12-5,71,67,62,64,62,59,100,88,68,30.16,30.09,30.03,10,9,5,10,4,,0.09,6,Rain,82
2012-12-6,73,65,57,63,60,57,100,89,64,30.03,30.00,29.96,10,7,0,18,5,,0.03,3,Fog-Rain,104
2012-12-7,71,64,57,65,61,57,100,95,78,29.99,29.94,29.90,10,5,0,12,2,,0.01,6,Fog,92
2012-12-8,72,67,62,65,63,60,100,94,68,30.00,29.96,29.91,10,4,0,10,2,,0.00,6,Fog,178
2012-12-9,72,62,53,68,61,54,100,94,78,30.04,29.98,29.93,10,6,0,14,3,,0.01,5,Fog,162
2012-12-10,73,60,46,69,61,40,100,91,79,29.98,29.86,29.79,10,9,4,17,8,36,0.41,6,Rain,233
2012-12-11,46,42,39,38,36,34,86,77,68,30.18,30.07,29.98,10,10,10,14,11,21,0.00,1,,360
2012-12-12,59,48,36,34,29,21,82,61,24,30.30,30.21,30.15,10,10,9,14,7,21,0.00,0,,350
2012-12-13,62,48,33,44,35,27,100,74,39,30.35,30.29,30.25,10,9,5,6,3,,0.00,0,,10
2012-12-14,60,48,36,52,44,35,97,83,62,30.32,30.23,30.12,10,9,7,10,4,,0.00,0,,95
2012-12-15,66,58,51,62,56,48,97,88,75,30.12,30.06,29.99,10,10,9,10,5,,0.00,3,,122
2012-12-16,71,66,61,66,62,59,100,93,81,29.99,29.92,29.85,10,8,3,13,3,24,0.03,6,Rain,154
2012-12-17,66,58,51,64,60,50,100,93,83,29.90,29.82,29.77,10,8,1,15,7,21,0.26,4,Rain,243
2012-12-18,61,52,42,51,46,42,100,84,54,30.05,30.00,29.92,10,10,5,9,3,,0.01,0,,166
2012-12-19,70,56,42,66,53,41,100,89,65,30.06,29.98,29.89,10,8,2,15,4,,0.01,4,Rain,143
2012-12-20,70,58,43,69,54,27,100,79,37,30.26,29.94,29.84,10,6,2,23,13,41,0.16,5,Rain,238
2012-12-21,55,44,34,32,24,15,85,52,21,30.39,30.33,30.26,10,10,10,18,8,24,0.00,0,,312
2012-12-22,57,42,28,39,32,23,93,71,27,30.43,30.34,30.24,10,10,9,8,2,,0.00,0,,188
2012-12-23,64,51,39,57,48,38,93,82,67,30.23,30.13,30.00,10,10,10,14,3,,0.00,3,,155
2012-12-24,75,68,62,64,61,57,100,89,62,29.98,29.90,29.85,10,7,0,13,7,20,0.03,4,Fog-Rain,205
2012-12-25,69,62,53,64,60,47,100,92,80,29.88,29.71,29.56,10,6,0,23,7,36,0.96,6,Fog-Rain-Thunderstorm,182
2012-12-26,52,44,37,43,34,30,76,69,56,30.16,29.99,29.73,10,10,10,20,13,29,0.00,3,,321
2012-12-27,48,40,33,40,34,28,86,77,59,30.21,30.13,30.06,10,10,8,9,5,,0.00,3,,49
2012-12-28,64,54,44,63,56,39,100,88,77,30.04,29.86,29.72,10,8,0,23,10,32,0.99,7,Fog-Rain,189
2012-12-29,51,44,35,48,36,27,90,72,52,30.40,30.16,29.90,10,10,10,23,16,33,0.00,4,,322
2012-12-30,52,40,28,35,28,24,89,69,35,30.52,30.43,30.36,10,10,9,9,5,,0.00,0,,11
2012-12-31,60,48,36,55,42,29,93,74,59,30.35,30.23,30.09,10,10,7,15,4,,0.00,5,,78